DW0333 Tranby-Lier NO current weather conditions

sailwx.info

Wind from 342 at 1 knots

Air temperature 10.0° C
Dewpoint 1.1° C

Last reported at 2017-Mar-27 19:47 UTC.
Time now 2017-Mar-27 20:25 UTC

Location: N 59°50' E 010°17'.
View on Google Maps.

See reports from other nearby stations

  
Tides and Currents Weather Stations Pressure Air Temp Water Temp Dewpoint Dewpoint Depression Visibility Wind Speed Wind Dir Waves Ship Positions
date/time (UTC)wind fromknots sea level pressurealtimeterstation pressurevisibilityair tempwater tempwave heightnotes
2017-Mar-27 19:47 342 1 10.0
2017-Mar-27 19:32 352 3 10.6
2017-Mar-27 19:17 302 3 10.6
2017-Mar-27 19:02 313 4 10.6
2017-Mar-27 18:47 298 2 10.6
2017-Mar-27 18:32 339 0 11.1
2017-Mar-27 18:16 280 1 11.1
2017-Mar-27 18:02 294 3 11.7
2017-Mar-27 17:46 306 0 11.7
2017-Mar-27 17:31 252 2 12.2
2017-Mar-27 17:16 212 3 12.2
2017-Mar-27 17:01 256 2 12.8
2017-Mar-27 16:46 270 2 12.8
2017-Mar-27 16:32 252 4 13.3
2017-Mar-27 16:16 287 3 13.3
2017-Mar-27 16:02 255 3 13.3
2017-Mar-27 15:43 273 3 13.9
2017-Mar-27 15:28 323 4 13.9
2017-Mar-27 15:13 267 6 13.9
2017-Mar-27 14:58 281 6 14.4
2017-Mar-27 14:42 207 8 15.0
2017-Mar-27 14:27 294 7 15.6
2017-Mar-27 14:12 253 6 16.1
2017-Mar-27 13:57 256 6 16.1
2017-Mar-27 13:41 293 6 16.1
2017-Mar-27 13:26 234 6 16.1
2017-Mar-27 13:11 225 7 15.6
2017-Mar-27 12:56 279 6 15.6
2017-Mar-27 12:41 217 6 15.6
2017-Mar-27 12:26 184 6 15.0
2017-Mar-27 12:11 258 5 14.4
2017-Mar-27 11:56 277 6 13.9
2017-Mar-27 11:41 254 6 13.9
2017-Mar-27 11:26 254 4 13.9
2017-Mar-27 11:11 266 4 13.3
2017-Mar-27 10:53 291 5 13.3
2017-Mar-27 10:38 225 3 12.8
2017-Mar-27 10:23 245 4 12.8
2017-Mar-27 10:08 257 4 12.8
2017-Mar-27 09:52 261 5 13.3
2017-Mar-27 09:37 265 4 13.3
2017-Mar-27 09:22 252 4 13.3
2017-Mar-27 09:07 188 3 13.3
2017-Mar-27 08:52 288 4 12.8
2017-Mar-27 08:36 250 3 12.2
2017-Mar-27 08:22 242 4 12.2
2017-Mar-27 08:06 212 5 11.7
2017-Mar-27 07:51 250 5 11.7
2017-Mar-27 07:36 275 5 11.1
2017-Mar-27 07:21 256 5 10.6
2017-Mar-27 07:06 257 5 10.0
2017-Mar-27 06:51 265 5 9.4
2017-Mar-27 06:33 248 4 8.9
2017-Mar-27 06:21 207 4 8.9
2017-Mar-27 06:03 259 4 8.9
2017-Mar-27 05:48 259 3 8.3
2017-Mar-27 05:33 265 3 8.3
2017-Mar-27 05:18 234 4 8.3
2017-Mar-27 05:03 252 5 8.9
2017-Mar-27 04:47 276 5 8.3
2017-Mar-27 04:32 284 4 8.3
2017-Mar-27 04:17 317 3 8.3
2017-Mar-27 04:01 275 3 8.3
2017-Mar-27 03:46 302 4 8.3
2017-Mar-27 03:33 292 2 8.3
2017-Mar-27 03:16 281 4 8.3
2017-Mar-27 03:02 305 4 8.3
2017-Mar-27 02:46 264 4 8.3
2017-Mar-27 02:32 268 3 8.3
2017-Mar-27 02:16 299 3 8.9
2017-Mar-27 02:02 311 3 8.9
2017-Mar-27 01:46 267 2 8.9
2017-Mar-27 01:29 272 1 8.9
2017-Mar-27 01:16 296 0 9.4
2017-Mar-27 00:58 295 1 9.4
2017-Mar-27 00:43 302 0 9.4
2017-Mar-27 00:28 288 2 9.4
2017-Mar-27 00:13 296 0 9.4
2017-Mar-26 23:58 032 0 9.4
2017-Mar-26 23:42 309 3 10.0
2017-Mar-26 23:27 283 5 10.0
2017-Mar-26 23:12 292 6 10.0
2017-Mar-26 22:56 295 4 10.0
2017-Mar-26 22:41 302 5 10.6
2017-Mar-26 22:26 280 6 10.6
2017-Mar-26 22:11 288 5 10.6
2017-Mar-26 21:56 343 6 10.6
2017-Mar-26 21:41 333 9 11.1
2017-Mar-26 21:26 271 10 11.1
2017-Mar-26 21:11 307 10 11.1
2017-Mar-26 20:56 288 7 10.6
2017-Mar-26 20:39 287 7 10.6
2017-Mar-26 20:24 275 6 10.6
2017-Mar-26 20:09 302 8 11.1
2017-Mar-26 19:53 287 7 11.7
2017-Mar-26 19:38 302 6 11.7
2017-Mar-26 19:23 294 6 11.7
2017-Mar-26 19:08 300 6 11.7
2017-Mar-26 18:52 306 6 12.2
2017-Mar-26 18:37 249 6 12.2
2017-Mar-26 18:22 294 6 12.8
2017-Mar-26 18:07 298 6 12.8
2017-Mar-26 17:52 275 5 12.8
2017-Mar-26 17:36 306 5 13.3
2017-Mar-26 17:21 288 6 13.9
2017-Mar-26 17:06 267 4 14.4
2017-Mar-26 16:51 298 4 15.6
2017-Mar-26 16:36 249 6 15.6
2017-Mar-26 16:21 252 4 16.1
2017-Mar-26 16:06 250 5 16.1
2017-Mar-26 15:51 288 5 16.7
2017-Mar-26 15:36 273 5 16.7
2017-Mar-26 15:21 261 6 16.7
2017-Mar-26 15:04 240 6 17.2
2017-Mar-26 14:51 302 6 17.2
2017-Mar-26 14:34 232 6 17.2
2017-Mar-26 14:18 262 6 17.2
2017-Mar-26 14:03 281 7 17.2
2017-Mar-26 13:48 269 6 17.2
2017-Mar-26 13:33 266 8 17.2
2017-Mar-26 13:17 263 8 17.2
2017-Mar-26 13:02 259 7 17.2
2017-Mar-26 12:47 257 7 17.8
2017-Mar-26 12:32 277 7 17.2
2017-Mar-26 12:16 277 6 17.2
2017-Mar-26 12:01 307 5 17.2
2017-Mar-26 11:46 273 6 16.7
2017-Mar-26 11:32 271 5 16.7
2017-Mar-26 11:16 283 5 15.6
2017-Mar-26 11:02 241 4 15.6
2017-Mar-26 10:46 253 4 15.6
2017-Mar-26 10:32 257 4 15.6
2017-Mar-26 10:16 287 5 15.0
2017-Mar-26 09:59 258 5 14.4
2017-Mar-26 09:43 264 4 13.9
2017-Mar-26 09:28 269 4 13.3
2017-Mar-26 09:13 270 3 12.8
2017-Mar-26 08:58 222 3 11.7
2017-Mar-26 08:42 200 1 11.1
2017-Mar-26 08:27 245 2 10.6
2017-Mar-26 08:12 150 1 10.0
2017-Mar-26 07:57 185 2 9.4
2017-Mar-26 07:41 200 1 8.9
2017-Mar-26 07:26 258 2 8.9
2017-Mar-26 07:11 237 0 8.9
2017-Mar-26 06:56 253 2 8.9
2017-Mar-26 06:41 258 1 8.3
2017-Mar-26 06:26 113 7.2
2017-Mar-26 06:11 112 6.7
2017-Mar-26 05:56 111 0 6.1
2017-Mar-26 05:41 111 1 6.1
2017-Mar-26 05:26 100 0 6.1
2017-Mar-26 05:11 108 0 5.6
2017-Mar-26 04:53 133 5.6
2017-Mar-26 04:38 133 5.6
2017-Mar-26 04:23 134 5.6
2017-Mar-26 04:08 135 5.6
2017-Mar-26 03:52 135 5.6
2017-Mar-26 03:37 135 0 6.1
2017-Mar-26 03:22 139 0 6.1
2017-Mar-26 03:06 296 0 6.7
2017-Mar-26 02:51 246 0 6.7
2017-Mar-26 02:36 246 0 6.7
2017-Mar-26 02:21 246 0 6.7
2017-Mar-26 02:06 221 1 7.2
2017-Mar-26 01:51 290 2 7.2
2017-Mar-26 01:36 281 4 7.2
2017-Mar-26 01:21 290 3 7.2
2017-Mar-26 01:06 287 3 7.2
2017-Mar-26 00:51 292 2 7.2
2017-Mar-26 00:34 279 3 7.2
2017-Mar-26 00:21 291 4 6.7
2017-Mar-26 00:03 283 1 6.7
2017-Mar-25 23:48 263 1 6.7
2017-Mar-25 23:32 260 2 6.7
2017-Mar-25 23:18 290 2 6.7
2017-Mar-25 23:04 249 3 6.7
2017-Mar-25 22:47 281 2 6.7
2017-Mar-25 22:32 296 2 6.7
2017-Mar-25 22:17 308 3 6.7
2017-Mar-25 22:02 291 2 6.1
2017-Mar-25 21:46 296 1 6.1
2017-Mar-25 21:31 296 1 6.1
2017-Mar-25 21:16 314 6.1
2017-Mar-25 21:01 315 0 6.1
2017-Mar-25 20:46 314 0 6.1
2017-Mar-25 20:31 315 0 6.1
2017-Mar-25 20:16 314 6.1
2017-Mar-25 20:01 311 0 6.1